Location: Gro�bocka
(50.8204°N, 11.9702°E)
Time: 01:35:26
(UTC+00:00)

YAOGAN 1 - Pass Details

Date: 29 October 2020
Orbit: 618 x 620 km, 97.9° (Epoch: 23 November)

Event Time Altitude Azimuth Distance (km) Brightness Sun altitude
Rises 17:15:31 0° 150° (SSE) 2,888 5.7 -13.7°
Reaches altitude 10° 17:17:43 10° 146° (SE) 1,986 4.9 -14.1°
Maximum altitude 17:21:55 52° 70° (ENE) 778 2.7 -14.7°
Drops below altitude 10° 17:26:08 10° 355° (N) 2,000 5.2 -15.4°
Sets 17:28:22 0° 350° (N) 2,911 6.1 -15.7°
